Погода в Ижевке

Россия / Республика Татарстан     55°57′49″N   52°37′32″E
темп.,
°C
ветер,
м/с
пор.,
м/с
влажн.,
%
обл.,
%
осадки,
мм/ч
давл.,
гПа
погр.,
м
27 сентября, пн
пн2700:00+9всв61176100 0.2 1008426
03:00+8в71288100 0.3 1010661
06:00+5всв81289100 1.3 1011632
09:00+3всв81496100 2.8 1013602
12:00+4всв81388100 0.3 1015766
15:00+6всв91370100 0.4 1017995
18:00+4всв81581100 0.0 1020998
21:00+4св7147661 0.0 1021711
28 сентября, вт
вт2800:00+3св714735 0.0 1022652
03:00+2св714785 0.0 1023541
06:00+1св613835 0.0 1025557
09:00+3всв7971100 0.0 1026993
12:00+6св795380 0.0 10261456
15:00+8св6846100 0.0 10261656
18:00+5ссв4961100 0.0 1027252
21:00+3ссв3869100 0.0 1028248
29 сентября, ср
ср2900:00+2ссв367680 0.0 1028127
03:00+1ссв348111 0.0 102976
06:000с33825 0.0 103046
09:00+6ссв34625 0.0 1030546
12:00+8ссв345083 0.0 10301537
15:00+9ссв454560 0.0 10291595
18:00+5ссв22615 0.0 103010
21:00+3с11675 0.0 103110
30 сентября, чт
чт3000:00+2с11725 0.0 103110
03:00+1ссз11775 0.0 103210
06:00+1ссз11805 0.0 103210
09:00+6сз225881 0.0 1032377
12:00+8сз335476 0.0 1031767
15:00+9сз345499 0.0 10301244
18:00+7зсз236599 0.0 103055
21:00+7зсз256786 0.0 1030146
1 октября, пт
пт100:00+6з238189 0.0 103075
03:00+6з388271 0.0 1029227
06:00+5з3688100 0.0 1029178
09:00+7зсз3580100 0.0 1029286
12:00+12сз346798 0.0 1028904
15:00+11ссз4570100 0.0 1028501
18:00+9ссз2579100 0.0 1029204
21:00+9сз2580100 0.0 1030156